Presure
214 216 212 206 213 234 245 241 209 205 217 229 238 221 219 224 251 246 256 269 281 282 270 264 265 263 262 262 256 263 260 264 260 265 289 317 293 280 278 273 268 268 266 269
274 259 246 243 253 236 249 240 240 242 240 235 240 243 254 247 283 272 282 279 278 274 269 265 264 264 263 260 258 261 260 260 264 300 296 278 279 267 250 262 256 251 249 252
251 247 227 244 269 246 247 257 271 264 268 276 266 262 275 271 272 275 278 274 275 270 262 263 267 264 258 258 260 269 261 264 282 293 297 280 273 259 256 253 251 253 244 249
277 268 270 265 271 269 265 265 266 272 238 271 277 271 270 269 274 276 275 274 267 267 268 271 267 260 258 261 263 263 264 280 303 274 283 275 263 251 253 250 244 245 251 252
294 286 289 282 274 271 274 280 282 277 288 276 272 274 274 283 273 272 276 268 266 274 269 265 261 258 262 261 267 264 277 290 281 264 280 260 264 253 256 254 255 251 243 239
292 283 287 282 277 278 268 283 286 276 276 278 283 281 278 271 273 276 270 263 270 267 265 262 261 254 262 262 269 275 285 293 270 271 261 247 255 254 254 243 239 230 231 232
292 283 283 284 282 276 275 262 267 268 270 274 277 271 276 275 272 264 264 273 271 273 263 258 257 258 261 273 272 272 288 286 290 254 259 261 259 245 239 231 233 232 228 229
293 283 281 278 289 276 277 274 271 271 278 280 280 283 269 272 266 263 268 281 272 264 264 261 254 262 274 272 276 293 279 283 278 263 259 244 237 237 237 234 229 228 229 235
293 280 273 269 271 284 269 273 280 278 273 278 268 260 261 261 267 268 265 265 264 262 259 252 268 275 271 294 328 289 287 280 264 252 236 228 240 237 232 229 228 229 238 243
290 279 271 272 277 274 278 274 272 289 287 268 265 266 265 271 273 266 273 266 257 259 257 271 272 270 293 370 308 274 285 260 239 233 236 236 233 230 227 226 233 242 245 242
288 282 284 281 276 278 281 267 281 273 273 263 264 269 267 270 274 272 266 259 260 260 267 263 266 283 353 308 272 273 241 229 236 239 234 232 227 227 228 238 242 238 240 247
294 291 284 282 291 294 297 279 272 270 269 264 264 272 265 269 264 268 257 255 258 266 267 268 269 342 306 272 264 248 236 234 237 234 232 227 223 231 240 235 238 235 240 246
296 304 302 293 291 284 282 296 284 284 276 276 273 211 269 268 269 254 254 258 201 263 263 267 298 337 278 268 248 240 231 232 232 232 226 224 235 236 226 235 232 243 243 254
298 294 291 308 310 313 292 287 281 263 244 270 264 267 274 262 253 257 258 173 260 263 261 273 358 282 266 249 240 237 229 228 233 226 223 237 228 228 228 233 240 242 254 262
237 294 290 291 293 288 278 273 280 275 268 269 273 273 264 260 254 256 263 260 258 257 269 340 284 269 259 239 237 232 232 234 226 227 236 227 225 224 232 238 242 248 260 264
304 309 306 290 283 281 277 280 273 277 269 267 270 268 264 238 254 262 222 260 258 260 309 308 267 259 248 240 235 232 230 223 229 231 226 225 227 236 236 241 242 253 262 268
285 291 301 301 298 295 294 286 282 277 268 269 158 264 257 259 263 199 255 252 262 285 331 268 257 250 243 237 230 227 217 231 229 224 229 230 233 232 240 240 248 263 265 275
354 324 311 297 285 282 282 280 273 282 279 274 248 262 213 267 268 269 260 268 277 319 268 254 250 239 236 229 222 220 233 227 223 227 229 226 228 236 240 249 255 266 271 281
351 313 300 295 304 294 287 282 283 274 272 272 272 269 267 271 273 271 268 273 315 271 254 247 243 236 229 221 227 232 226 223 224 226 228 228 233 240 247 253 265 271 279 294
340 316 302 293 294 289 286 281 277 277 272 272 272 277 283 280 277 273 280 310 271 260 252 248 240 225 224 234 231 227 225 221 223 229 230 234 240 245 252 263 271 277 293 306
335 321 301 286 283 281 275 275 278 273 273 275 279 272 282 295 292 290 353 266 258 252 242 234 219 229 236 229 228 226 226 225 232 231 236 240 241 253 262 266 276 292 308 338
341 325 309 292 283 275 275 279 282 277 280 288 294 303 309 341 395 278 261 251 241 239 225 229 238 230 232 228 226 228 225 232 228 238 238 239 254 254 265 274 291 307 349 360
343 329 314 308 297 230 281 287 295 300 310 309 332 373 329 273 264 255 247 240 229 224 237 234 225 230 225 230 229 228 229 229 238 235 240 254 257 265 274 293 309 353 360 358
330 314 308 306 309 307 309 312 311 324 354 339 281 268 261 256 250 239 228 231 236 238 227 227 230 233 230 228 235 227 233 233 238 246 252 262 263 277 294 313 361 364 390 363
320 316 317 319 313 308 313 343 327 296 267 262 257 254 245 226 227 232 240 232 228 231 234 231 226 231 232 224 232 231 235 243 248 249 262 264 278 299 333 385 394 386 355 332
320 313 321 333 339 321 288 269 262 259 256 245 227 228 230 231 233 223 228 234 232 227 228 232 230 237 228 232 233 239 248 242 251 261 266 279 302 407 404 395 367 341 320 298
307 303 296 281 269 264 260 259 241 232 233 234 226 223 226 229 231 233 229 229 237 239 236 227 227 232 234 238 243 241 244 255 260 273 282 307 388 377 353 332 318 305 288 281
Wind_Speed
129 129 130 125 130 134 130 128 122 121 130 136 128 128 128 131 112 105 96 87 71 67 65 67 67 67 68 67 67 64 62 60 61 58 49 26 20 19 17 13 13 11 11 13
118 120 134 136 112 111 111 116 124 126 113 115 117 118 102 104 78 80 70 69 67 65 65 66 66 66 66 65 64 63 60 57 56 47 35 31 22 20 30 17 18 21 20 19
106 108 111 114 101 110 106 104 104 100 95 89 90 93 85 79 75 71 66 67 66 65 65 66 66 65 63 62 62 58 55 53 49 36 27 24 20 23 23 24 24 23 27 27
96 98 104 101 96 95 97 93 95 91 87 79 74 75 74 70 68 66 64 65 66 64 65 64 63 61 61 60 57 55 52 46 36 32 28 25 26 29 29 29 30 30 29 30
81 85 87 86 83 85 84 81 80 74 68 66 65 67 65 62 62 63 61 63 64 62 60 60 59 58 57 56 52 52 46 40 30 29 24 27 26 28 29 31 29 28 28 30
69 73 69 68 69 70 70 63 67 65 63 60 58 58 57 57 59 60 60 62 60 59 57 56 55 57 54 52 51 46 41 34 28 27 28 32 29 28 26 27 28 33 34 36
59 61 59 62 59 61 59 60 60 62 62 61 58 55 54 53 55 60 61 59 56 52 51 52 53 53 53 47 44 41 36 30 26 28 28 28 27 24 28 32 33 35 40 43
55 53 58 60 63 56 55 57 59 60 61 61 57 49 53 53 56 59 58 53 49 48 48 49 52 54 49 43 42 40 31 27 25 25 24 24 28 30 30 32 36 41 44 48
53 54 58 62 62 59 54 54 55 56 54 53 51 54 56 57 57 57 54 49 47 46 48 51 52 48 43 49 35 29 27 22 23 20 23 31 29 31 34 38 41 45 50 53
54 55 59 63 61 58 55 47 50 51 47 50 54 55 55 57 56 53 49 45 48 47 50 48 48 44 50 33 27 24 24 21 22 25 26 29 32 34 38 42 46 51 53 54
55 59 64 64 61 63 56 49 46 48 51 55 54 54 54 52 49 44 42 45 46 47 46 47 43 51 37 26 23 22 22 27 26 27 29 31 35 38 42 47 50 51 54 60
57 59 60 60 59 57 53 47 53 54 52 53 52 51 51 49 44 40 43 44 46 43 44 48 46 43 27 22 23 23 23 26 28 29 31 35 39 42 47 47 50 52 58 64
48 50 58 58 59 53 51 49 46 42 45 46 48 39 47 43 39 42 45 45 38 42 45 45 46 31 23 23 24 25 25 28 30 31 35 39 42 44 45 51 52 59 63 68
50 50 47 46 48 48 45 41 36 32 35 43 47 46 41 40 42 43 42 33 41 43 43 44 38 27 23 25 25 26 27 30 32 35 38 41 42 45 50 56 61 64 69 71
41 48 44 41 38 39 39 38 33 35 41 41 40 40 40 41 42 43 41 41 42 41 46 43 29 25 25 26 26 26 29 32 35 38 40 42 45 49 56 61 66 69 72 74
44 43 47 48 45 43 39 39 36 37 38 40 39 40 39 37 42 43 34 42 42 43 44 29 26 26 26 27 26 28 31 34 38 39 42 46 50 57 60 65 69 74 75 77
40 43 43 39 39 38 36 38 38 38 39 40 30 40 40 41 43 34 39 38 42 43 35 26 25 25 26 27 27 30 34 38 39 41 46 50 54 58 65 68 73 77 77 79
40 37 37 35 37 38 40 39 38 38 37 39 39 42 35 42 40 39 37 41 41 35 27 26 24 25 26 28 30 33 36 38 41 44 49 52 57 65 68 74 78 79 79 81
37 35 37 36 36 39 40 39 37 37 38 39 39 40 41 42 41 39 39 37 38 28 27 26 25 27 29 32 32 35 38 40 43 48 52 56 62 69 73 78 80 80 83 81
37 37 37 35 32 33 36 37 37 38 39 38 39 41 42 40 39 38 36 36 26 26 27 26 26 30 33 33 34 37 40 43 48 53 57 62 69 74 78 81 83 83 83 80
37 37 38 36 34 33 33 35 38 38 38 38 38 35 40 42 38 34 42 22 24 25 26 26 31 32 33 35 38 41 44 48 54 58 63 69 73 80 82 83 84 85 81 77
34 35 34 38 36 35 36 37 39 38 38 40 39 38 35 38 30 20 21 24 27 26 28 30 31 32 35 38 42 45 48 55 57 66 69 71 80 82 84 86 86 82 73 63
29 26 27 30 36 26 36 35 35 33 32 30 33 29 19 19 20 21 24 26 26 29 30 31 34 36 40 43 47 50 55 58 66 67 73 79 83 84 89 87 82 71 61 53
19 24 27 28 27 27 27 27 25 27 25 17 19 19 19 19 20 22 25 27 29 30 33 35 38 42 44 48 55 55 62 65 68 76 79 84 85 90 87 82 68 59 46 41
19 21 21 20 19 20 20 22 15 16 18 18 17 18 17 20 23 25 26 28 31 33 36 38 42 47 51 52 59 62 66 72 75 78 85 86 91 86 79 59 50 43 39 36
10 12 15 17 16 15 18 18 16 15 14 14 15 18 21 23 25 31 31 32 34 38 41 46 49 55 55 60 63 67 73 72 80 85 88 90 85 54 47 42 38 36 35 37
11 12 15 18 16 14 13 12 11 12 14 16 20 25 26 28 29 32 35 38 43 47 48 50 54 58 62 66 69 70 75 82 84 89 89 81 50 44 39 38 37 37 40 44
Wind_Direction
276 275 273 275 275 276 277 277 276 278 281 283 281 283 285 287 287 288 290 289 285 283 285 284 284 284 285 287 292 295 295 296 295 297 300 286 289 296 299 305 304 305 297 286
272 272 273 274 270 274 275 275 275 278 280 280 279 282 284 285 284 286 283 283 282 282 283 284 285 285 288 292 295 296 295 295 295 300 294 289 278 286 289 289 288 283 280 278
270 270 271 273 275 275 275 273 276 280 281 282 283 284 284 284 283 283 280 281 281 283 284 285 285 288 292 294 295 297 296 296 298 289 273 271 268 280 278 280 283 283 285 281
268 267 268 272 272 273 276 279 280 281 280 281 277 278 278 279 277 277 277 278 282 283 283 283 287 291 292 294 296 296 297 298 292 279 266 262 267 276 275 280 285 284 281 280
261 262 265 269 271 271 270 272 274 276 272 272 272 272 274 270 275 277 277 278 281 283 284 288 290 291 293 294 296 298 297 294 277 275 252 269 262 272 273 272 276 283 287 287
257 262 265 264 264 264 268 270 268 270 272 272 271 271 271 274 276 275 276 279 282 284 287 289 290 291 293 297 298 295 294 288 272 266 265 279 274 272 273 282 285 284 286 287
252 257 259 259 258 261 264 265 267 270 272 272 273 273 273 271 271 273 276 282 286 289 288 288 288 291 295 297 294 290 287 278 259 269 263 264 270 276 279 280 285 286 288 291
246 247 252 255 256 256 258 257 260 263 265 267 270 273 270 271 271 274 282 288 289 288 287 290 292 293 294 293 289 287 280 267 254 259 264 274 279 282 286 288 287 289 292 296
240 241 250 254 259 256 256 255 256 259 261 263 266 268 270 273 275 280 285 287 289 289 290 289 291 293 295 296 283 270 269 249 254 263 276 279 286 287 289 290 292 295 301 304
240 241 245 252 254 259 260 262 264 269 263 260 262 266 270 274 279 281 285 286 285 286 289 290 294 299 299 290 268 261 253 251 264 271 277 281 285 289 291 294 299 304 306 307
237 239 242 245 252 252 254 256 254 256 257 262 265 267 271 274 277 281 280 281 285 289 291 293 299 300 295 269 256 252 252 270 273 278 281 286 290 294 297 302 306 306 308 310
237 239 242 246 248 251 255 253 253 256 257 263 267 270 270 273 278 279 280 285 286 289 293 292 298 298 269 252 248 251 264 275 279 283 288 291 293 300 305 305 308 308 311 312
246 245 242 245 250 255 258 254 253 259 257 260 261 273 270 275 276 279 282 285 287 290 290 294 296 278 257 243 250 261 272 278 285 288 289 292 300 304 301 308 308 312 312 313
247 251 254 255 251 249 248 252 254 257 258 256 261 266 269 270 277 279 283 281 285 289 290 295 292 259 249 245 258 263 274 281 285 287 292 300 300 305 307 309 313 313 314 315
250 252 254 257 256 250 245 248 252 247 251 257 262 262 264 269 277 281 284 284 285 289 293 293 257 254 246 256 265 274 281 285 289 293 300 301 303 305 310 312 314 315 317 317
251 251 251 252 255 256 254 259 252 251 253 258 259 261 265 272 273 278 278 283 285 288 289 261 252 251 254 262 271 279 284 289 293 298 302 303 306 310 311 313 314 316 317 318
245 250 245 245 247 249 248 251 253 252 255 256 288 264 267 269 273 276 275 279 283 285 282 245 247 254 260 269 276 282 288 292 296 300 306 308 310 311 313 313 315 317 317 318
247 242 235 236 242 246 247 250 253 254 253 255 262 262 273 270 274 274 273 280 280 278 239 244 249 258 264 271 281 286 290 294 298 304 307 306 310 312 313 315 316 317 318 317
243 227 232 236 235 238 244 249 250 253 254 256 259 264 269 271 272 271 274 275 278 237 241 249 253 261 268 279 285 288 291 294 300 304 307 309 310 312 314 315 317 318 318 315
237 222 226 231 231 234 239 246 251 251 255 260 264 267 267 268 269 268 266 269 235 239 246 251 259 273 279 283 287 290 294 295 300 307 307 309 311 313 314 316 318 319 316 315
233 221 221 230 234 238 243 249 252 256 261 264 266 267 267 269 269 264 276 227 233 239 251 264 276 279 284 288 292 294 299 300 307 306 308 310 311 313 316 316 318 316 315 314
232 223 218 223 231 239 244 248 250 257 262 262 261 263 267 273 266 213 221 231 245 255 272 276 280 285 292 292 294 300 300 306 305 308 309 309 313 313 315 317 316 315 313 311
234 223 214 219 226 250 243 247 251 255 260 261 266 263 233 208 214 224 239 251 268 275 278 282 284 291 290 297 301 302 304 305 307 307 308 312 312 314 316 315 314 312 310 309
219 201 208 216 226 234 242 246 250 258 257 237 194 204 215 225 235 251 270 273 278 284 283 287 292 297 298 300 302 302 305 305 307 308 311 312 313 314 313 312 310 308 306 304
209 213 221 225 225 227 237 243 216 193 195 206 216 227 241 262 266 273 281 281 283 288 293 295 294 300 300 299 302 302 303 305 307 310 310 311 312 312 312 307 307 306 304 302
223 215 218 223 216 194 173 183 194 203 216 232 252 259 263 269 277 277 281 287 290 290 295 298 298 299 299 300 301 303 305 305 308 309 310 311 311 309 309 309 307 306 304 303
148 153 156 157 165 177 191 200 223 242 250 256 264 269 274 278 283 289 290 293 296 296 296 295 297 297 298 300 302 302 305 306 308 309 309 310 312 312 311 311 308 305 303 304